Aérodrome :
LOGIN :

S'inscrire | Disclaimer

   EN    FR    IT 

 










Légende :    VFR   VFR Marginal   IFR   IFR Intensif   IFR Très Intensif
Visi : 
Plafond : 
>= 8 km
>= 3000ft
5 à 8 km
1000 à 3000 ft
1500m à 5 km
500 à 1000 ft
800 à 1500m
200 à 500 ft
< 800m
< 200 ft
Symboles :   Orages  Brouillard  Fortes neiges  Fortes précipitations  Vent > 20 kt
SIGMETs :   Divers  Orages  Givrage  Turbulence  Onde Orograph.  Cendres Volcan.






- Altitude de l'aérodrome : 7 ft
- Code IATA : POW


LJPZ - Portoroz

DERNIER METAR :
  • 180800Z 05004KT 010V100 CAVOK 12/01 Q1015

METARs EXPIRÉS :
  • 180730Z 28002KT CAVOK 11/03 Q1016
  • 180700Z 00000KT CAVOK 09/04 Q1016
  • 180630Z 12003KT CAVOK 08/03 Q1016
  • 180600Z 13004KT 100V160 CAVOK 06/02 Q1016
  • 180530Z 12004KT CAVOK 04/02 Q1016

TAF TAF LJPZ
Valide du 18 à 06h jusqu'au 18 à 15h UTC


180500Z 1806/1815 09005KT CAVOK



MET'MAP, la Météo Aéronautique d'un coup d'oeil ! - Copyright ORBIFLY Décembre 2007 - Disclaimer

ORBIFLY MET'MAP TEAM :

Programmation & Développement : Alexandra Zaïnal
Sur une idée originale de : Baudouin d'Aumeries
Assistance à la programmation : Marc-Olivier Méhu
Soutien technique & logistique : Manuel Goepfert

Contact : metmap@orbifly.com




SOURCES & CREDITS :

   NOAA